Content
SEND FEEDBACK

Daily
Averages
Monthly
Summary
United States of America

SWANNANOA, NORTH CAROLINA


Home > North America > United States > North Carolina
Elevation: 2265 feet     Latitude: 35 36N     Longitude: 082 32W

WEATHER
 
SELECT A DAY
Number of Records: 226,181;   Date Range: 1/1/95 - 8/22/14
 
SHARE

PRINT THIS DATA

[ ← Previous Day ]
WEATHER ALMANAC - FEBRUARY 25, 2013
[ Next Day → ]
[ °C ]   °F
Weather ElementAverageHighLow
Temperature37.7 °F45 °F (4:54 pm)30.9 °F (1:54 am)
Dewpoint26.5 °F32 °F (11:28 pm)23 °F (1:54 pm)
Humidity66.2 %96 % (11:54 pm)44 % (4:54 pm)
Barometer30.04 in30.12 in (8:54 am)30.00 in (3:54 am)
Wind Speed6.1 mph10.4 mph (5:08 pm)
Weather ElementAverage
Visibility9.2 mi
Wind DirectionSSE (153.3 °)

Weather ElementTotal
Precipitation---
Heating Degree Days27.1 (Base 65)
Averaged from 30 records on February 25, 2013
WEATHER CONDITIONS BREAKOUT
WIND DIRECTION BREAKOUT
WEATHER BY HOUR - FEBRUARY 25, 2013
[ °C ]   °F
Local TimeTemperatureDewpointHumidityBarometerVisibilityWind DirectionWind SpeedGust SpeedPrecipitationEventsConditions
1:54 AM30.9 °F25.0 °F79 %30.01 in10.0 miNNW (330°)4.6 mphClear
2:54 AM30.9 °F26.1 °F82 %30.01 in10.0 miCalmClear
3:54 AM30.9 °F26.1 °F82 %30.00 in10.0 miNNW (340°)3.5 mphClear
4:54 AM30.9 °F27.0 °F85 %30.02 in10.0 miCalmClear
5:54 AM32.0 °F26.1 °F79 %30.04 in10.0 miCalmClear
6:54 AM30.9 °F27.0 °F85 %30.07 in10.0 miSouth (180°)3.5 mphClear
7:54 AM30.9 °F28.0 °F89 %30.08 in10.0 miSE (140°)3.5 mphClear
8:54 AM34.0 °F28.0 °F79 %30.12 in10.0 miCalmClear
9:54 AM37.9 °F26.1 °F62 %30.12 in10.0 miSouth (180°)6.9 mphClear
10:54 AM37.9 °F24.1 °F57 %30.12 in10.0 miSouth (170°)9.2 mphClear
11:54 AM39.9 °F24.1 °F53 %30.11 in10.0 miSouth (190°)8.1 mphClear
12:54 PM42.1 °F25.0 °F51 %30.07 in10.0 miSouth (180°)8.1 mphClear
1:54 PM42.1 °F23.0 °F47 %30.07 in10.0 miSouth (170°)6.9 mphClear
2:54 PM42.1 °F24.1 °F49 %30.05 in10.0 miSouth (180°)6.9 mphClear
3:54 PM44.1 °F25.0 °F47 %30.04 in10.0 miSouth (170°)8.1 mphClear
4:54 PM45.0 °F24.1 °F44 %30.03 in10.0 miCalmScattered Clouds
5:08 PM44.6 °F24.8 °F46 %30.01 in10.0 miSouth (170°)10.4 mphMostly Cloudy
5:35 PM42.8 °F24.8 °F49 %30.00 in10.0 miSouth (170°)9.2 mphScattered Clouds
5:54 PM43.0 °F25.0 °F49 %30.01 in10.0 miSSE (160°)8.1 mphScattered Clouds
6:08 PM42.8 °F24.8 °F49 %30.00 in10.0 miSSE (160°)9.2 mphMostly Cloudy
6:54 PM41.0 °F26.1 °F55 %30.03 in10.0 miSouth (170°)8.1 mphOvercast
7:22 PM41.0 °F26.6 °F57 %30.01 in10.0 miSSE (160°)6.9 mphOvercast
7:54 PM41.0 °F26.1 °F55 %30.03 in10.0 miSSE (150°)8.1 mphOvercast
8:36 PM39.2 °F26.6 °F61 %30.02 in10.0 miSouth (170°)6.9 mphOvercast
8:54 PM39.0 °F27.0 °F62 %30.05 in10.0 miSSE (160°)8.1 mphOvercast
9:54 PM37.0 °F27.0 °F67 %30.04 in10.0 miSSE (160°)6.9 mphOvercast
10:54 PM35.1 °F30.9 °F85 %30.03 in5.0 miSouth (170°)8.1 mph0.00 inRainLight Rain
11:28 PM33.8 °F32.0 °F93 %30.00 in5.0 miSouth (190°)6.9 mph0.00 inOvercast
11:46 PM33.8 °F32.0 °F93 %30.00 in3.0 miSouth (190°)8.1 mph0.00 inRainLight Rain
11:54 PM33.1 °F32.0 °F96 %30.02 in4.0 miSouth (190°)8.1 mph0.00 inRainLight Rain
Hourly data recorded from KAVL, located miles away from Swannanoa, North Carolina







STORIES FROM OUR PARTNERS